• In Belarus
  • List of Countries
  • For 7 days
  • Water Temperature
  • Weather Map
  • Weather Widgets
  • user-avatar
    Login

    Hourly Weather Oran

    Today, 19 August, Monday

    Time Temperature Precipitation Wind Pressure Humidity
    00:00 +27°C° 0 mm 3 mps 750 mmHg 69%
    01:00 +27°C° 0 mm 3 mps 750 mmHg 67%
    02:00 +27°C° 0 mm 3 mps 749 mmHg 64%
    03:00 +27°C° 0 mm 3 mps 749 mmHg 62%
    04:00 +27°C° 0 mm 2 mps 749 mmHg 58%
    05:00 +27°C° 0 mm 2 mps 749 mmHg 55%
    06:00 +27°C° 0 mm 1 mps 749 mmHg 51%
    07:00 +29°C° 0 mm 2 mps 750 mmHg 44%
    08:00 +31°C° 0 mm 3 mps 750 mmHg 36%
    09:00 +35°C° 0 mm 3 mps 750 mmHg 28%
    10:00 +36°C° 0 mm 3 mps 750 mmHg 26%
    11:00 +36°C° 0 mm 4 mps 750 mmHg 24%
    12:00 +37°C° 0 mm 4 mps 750 mmHg 23%
    13:00 +37°C° 0 mm 4 mps 750 mmHg 23%
    14:00 +37°C° 0 mm 4 mps 750 mmHg 24%
    15:00 +37°C° 0 mm 3 mps 749 mmHg 25%
    16:00 +36°C° 0 mm 3 mps 749 mmHg 28%
    17:00 +35°C° 0 mm 2 mps 749 mmHg 32%
    18:00 +33°C° 0 mm 1 mps 749 mmHg 36%
    19:00 +31°C° 0 mm 2 mps 749 mmHg 42%
    20:00 +30°C° 0 mm 2 mps 749 mmHg 49%
    21:00 +28°C° 0 mm 2 mps 750 mmHg 56%
    22:00 +28°C° 0 mm 3 mps 750 mmHg 59%
    23:00 +27°C° 0 mm 3 mps 750 mmHg 62%

    Tomorrow, 20 August, Tuesday

    Time Temperature Precipitation Wind Pressure Humidity
    00:00 +27°C° 0 mm 3 mps 750 mmHg 65%
    01:00 +27°C° 0 mm 3 mps 750 mmHg 66%
    02:00 +26°C° 0 mm 3 mps 750 mmHg 67%
    03:00 +26°C° 0 mm 3 mps 749 mmHg 69%
    04:00 +26°C° 0 mm 3 mps 750 mmHg 67%
    05:00 +26°C° 0 mm 3 mps 750 mmHg 65%
    06:00 +26°C° 0 mm 4 mps 750 mmHg 63%
    07:00 +27°C° 0 mm 4 mps 750 mmHg 55%
    08:00 +29°C° 0 mm 4 mps 751 mmHg 46%
    09:00 +32°C° 0 mm 4 mps 751 mmHg 38%
    10:00 +33°C° 0 mm 5 mps 751 mmHg 36%
    11:00 +34°C° 0 mm 5 mps 751 mmHg 33%
    12:00 +34°C° 0 mm 5 mps 751 mmHg 31%
    13:00 +34°C° 0 mm 4 mps 751 mmHg 33%
    14:00 +34°C° 0 mm 4 mps 751 mmHg 35%
    15:00 +34°C° 0 mm 3 mps 751 mmHg 36%
    16:00 +33°C° 0 mm 3 mps 751 mmHg 39%
    17:00 +31°C° 0 mm 3 mps 751 mmHg 43%
    18:00 +30°C° 0 mm 3 mps 751 mmHg 46%
    19:00 +29°C° 0 mm 3 mps 751 mmHg 52%
    20:00 +28°C° 0 mm 3 mps 752 mmHg 58%
    21:00 +27°C° 0 mm 2 mps 752 mmHg 64%
    22:00 +27°C° 0 mm 3 mps 752 mmHg 69%
    23:00 +26°C° 0 mm 3 mps 752 mmHg 74%

    Day after tomorrow, 21 August, Wednesday

    Time Temperature Precipitation Wind Pressure Humidity
    00:00 +26°C° 0 mm 3 mps 752 mmHg 79%
    01:00 +26°C° 0 mm 3 mps 752 mmHg 82%
    02:00 +26°C° 0 mm 3 mps 752 mmHg 85%
    03:00 +25°C° 0 mm 3 mps 752 mmHg 88%
    04:00 +26°C° 0 mm 4 mps 752 mmHg 85%
    05:00 +26°C° 0 mm 4 mps 752 mmHg 83%
    06:00 +26°C° 0 mm 4 mps 752 mmHg 81%
    07:00 +27°C° 0 mm 4 mps 752 mmHg 73%
    08:00 +28°C° 0 mm 5 mps 752 mmHg 65%
    09:00 +29°C° 0 mm 5 mps 752 mmHg 57%
    10:00 +32°C° 0 mm 5 mps 752 mmHg 52%
    11:00 +33°C° 0 mm 6 mps 752 mmHg 47%
    12:00 +34°C° 0 mm 7 mps 752 mmHg 42%
    13:00 +34°C° 0 mm 8 mps 751 mmHg 47%
    14:00 +33°C° 0 mm 8 mps 751 mmHg 52%
    15:00 +33°C° 0 mm 9 mps 751 mmHg 56%
    16:00 +32°C° 0 mm 9 mps 751 mmHg 61%
    17:00 +29°C° 0 mm 9 mps 751 mmHg 67%
    18:00 +28°C° 0 mm 8 mps 751 mmHg 72%
    19:00 +28°C° 0 mm 8 mps 751 mmHg 74%
    20:00 +27°C° 0 mm 7 mps 752 mmHg 77%
    21:00 +26°C° 0 mm 6 mps 752 mmHg 79%
    22:00 +26°C° 0 mm 5 mps 752 mmHg 81%
    23:00 +26°C° 0 mm 5 mps 752 mmHg 82%

    22 August, Thursday

    Time Temperature Precipitation Wind Pressure Humidity
    00:00 +26°C° 0 mm 5 mps 752 mmHg 84%
    01:00 +26°C° 0 mm 4 mps 752 mmHg 85%
    02:00 +25°C° 0 mm 4 mps 752 mmHg 86%
    03:00 +25°C° 0 mm 4 mps 751 mmHg 88%
    04:00 +25°C° 0 mm 4 mps 752 mmHg 88%
    05:00 +25°C° 0 mm 4 mps 752 mmHg 88%
    06:00 +25°C° 0 mm 4 mps 752 mmHg 88%
    07:00 +27°C° 0 mm 4 mps 752 mmHg 79%
    08:00 +28°C° 0 mm 5 mps 752 mmHg 71%
    09:00 +29°C° 0 mm 5 mps 753 mmHg 62%
    10:00 +32°C° 0 mm 6 mps 752 mmHg 55%
    11:00 +34°C° 0 mm 6 mps 752 mmHg 47%
    12:00 +35°C° 0 mm 7 mps 752 mmHg 39%
    13:00 +35°C° 0 mm 8 mps 752 mmHg 41%
    14:00 +35°C° 0 mm 8 mps 751 mmHg 42%
    15:00 +34°C° 0 mm 9 mps 751 mmHg 44%
    16:00 +33°C° 0 mm 9 mps 750 mmHg 45%
    17:00 +32°C° 0 mm 9 mps 750 mmHg 46%
    18:00 +31°C° 0 mm 9 mps 750 mmHg 47%
    19:00 +29°C° 0 mm 8 mps 751 mmHg 49%
    20:00 +28°C° 0 mm 7 mps 751 mmHg 51%
    21:00 +28°C° 0 mm 6 mps 752 mmHg 54%
    22:00 +27°C° 0 mm 5 mps 751 mmHg 56%
    23:00 +27°C° 0 mm 5 mps 751 mmHg 59%

    23 August, Friday

    Time Temperature Precipitation Wind Pressure Humidity
    00:00 +26°C° 0 mm 4 mps 751 mmHg 61%
    01:00 +26°C° 0 mm 4 mps 751 mmHg 63%
    02:00 +26°C° 0 mm 4 mps 750 mmHg 65%
    03:00 +25°C° 0 mm 4 mps 750 mmHg 67%
    04:00 +25°C° 0 mm 3 mps 750 mmHg 68%
    05:00 +25°C° 0 mm 3 mps 750 mmHg 69%
    06:00 +25°C° 0 mm 3 mps 751 mmHg 70%
    07:00 +27°C° 0 mm 3 mps 751 mmHg 62%
    08:00 +29°C° 0 mm 4 mps 751 mmHg 53%
    09:00 +30°C° 0 mm 4 mps 751 mmHg 45%
    10:00 +33°C° 0 mm 5 mps 751 mmHg 41%
    11:00 +34°C° 0 mm 6 mps 751 mmHg 38%
    12:00 +35°C° 0 mm 6 mps 751 mmHg 34%
    13:00 +35°C° 0 mm 7 mps 750 mmHg 36%
    14:00 +35°C° 0 mm 7 mps 750 mmHg 37%
    15:00 +34°C° 0 mm 8 mps 750 mmHg 38%
    16:00 +33°C° 0 mm 7 mps 750 mmHg 41%
    17:00 +32°C° 0 mm 7 mps 749 mmHg 44%
    18:00 +29°C° 0 mm 7 mps 749 mmHg 48%
    19:00 +28°C° 0 mm 6 mps 750 mmHg 50%
    20:00 +28°C° 0 mm 5 mps 750 mmHg 53%
    21:00 +27°C° 0 mm 5 mps 751 mmHg 56%
    22:00 +26°C° 0 mm 4 mps 751 mmHg 59%
    23:00 +26°C° 0 mm 4 mps 751 mmHg 62%

    24 August, Saturday

    Time Temperature Precipitation Wind Pressure Humidity
    00:00 +25°C° 0 mm 4 mps 750 mmHg 65%
    01:00 +25°C° 0 mm 4 mps 750 mmHg 68%
    02:00 +25°C° 0 mm 4 mps 750 mmHg 71%
    03:00 +23°C° 0 mm 4 mps 750 mmHg 74%
    04:00 +24°C° 0 mm 3 mps 750 mmHg 76%
    05:00 +24°C° 0 mm 3 mps 750 mmHg 77%
    06:00 +24°C° 0 mm 3 mps 750 mmHg 79%
    07:00 +26°C° 0 mm 3 mps 751 mmHg 70%
    08:00 +28°C° 0 mm 3 mps 751 mmHg 60%
    09:00 +29°C° 0 mm 4 mps 751 mmHg 51%
    10:00 +32°C° 0 mm 4 mps 751 mmHg 43%
    11:00 +34°C° 0 mm 5 mps 751 mmHg 36%
    12:00 +36°C° 0 mm 5 mps 751 mmHg 28%
    13:00 +36°C° 0 mm 6 mps 750 mmHg 28%
    14:00 +36°C° 0 mm 6 mps 750 mmHg 29%
    15:00 +36°C° 0 mm 7 mps 750 mmHg 29%
    16:00 +35°C° 0 mm 7 mps 749 mmHg 31%
    17:00 +33°C° 0 mm 7 mps 749 mmHg 33%
    18:00 +32°C° 0 mm 6 mps 749 mmHg 35%
    19:00 +30°C° 0 mm 6 mps 749 mmHg 38%
    20:00 +29°C° 0 mm 5 mps 750 mmHg 41%
    21:00 +28°C° 0 mm 4 mps 750 mmHg 44%
    22:00 +27°C° 0 mm 4 mps 750 mmHg 46%
    23:00 +26°C° 0 mm 3 mps 750 mmHg 48%
    Show more